Location: Audinghen
(50.8518°N, 1.6129°E)
Time: 17:49:35
(UTC+00:00)

SL-16 R/B - Pass Details

Date: 07 August 2020
Orbit: 841 x 849 km, 71.0° (Epoch: 23 September)

Event Time Altitude Azimuth Distance (km) Brightness Sun altitude
Rises 03:42:34 0° 318° (NW) 3,424 5.3 -7.1°
Reaches altitude 10° 03:45:56 10° 299° (WNW) 2,482 4.4 -6.6°
Maximum altitude 03:49:18 16° 262° (W) 2,065 3.7 -6.2°
Drops below altitude 10° 03:52:39 10° 225° (SW) 2,470 4.0 -5.8°
Enters shadow 03:54:55 - 210° (SSW) 3,065 4.5 -5.5°
